Regional Weather Roundup
Issued by NWS

Home | Current Version | Previous Version | Text Only | Print | Product List | Glossary Off
Versions: 1 2 3 4 5 6 7 8 9 10 11 12 13 14 15 16 17 18 19 20 21 22 23 24 25 26 27 28 29 30 31 32 33 34 35 36 37 38 39 40 41 42 43 44 45 46 47 48 49 50

000
ASUS43 KFSD 190302
RWRSD

WEATHER ROUNDUP FOR SOUTH DAKOTA
NATIONAL WEATHER SERVICE SIOUX FALLS SD
1000 PM CDT FRI AUG 18 2017

NOTE: "FAIR" INDICATES FEW OR NO CLOUDS BELOW 12,000 FEET WITH NO
SIGNIFICANT WEATHER AND/OR OBSTRUCTIONS TO VISIBILITY.


SDZ001>005-009-010-012>017-190400-
NORTHWEST AND NORTH CENTRAL SOUTH DAKOTA

CITY           SKY/WX    TMP DP  RH WIND       PRES   REMARKS
BUFFALO          N/A     73  45  36 SE10      29.87S
FAITH            N/A     71  51  49 SE15      29.95R
MOBRIDGE       FAIR      64  58  80 E6        29.92R
$$

SDZ012>016-024>037-041>051-057-063-072>074-190400-
SOUTHWEST AND SOUTH CENTRAL SOUTH DAKOTA

CITY           SKY/WX    TMP DP  RH WIND       PRES   REMARKS
RAPID CTY ARPT FAIR      67  46  47 VRB3      29.98S
PIERRE         FAIR      66  52  60 E5        29.94R
CUSTER         FAIR      65  41  41 VRB5      30.14R
ELLSWORTH AFB  FAIR      72  46  38 SE6       29.98R
PHILIP         FAIR      69  52  54 E9        29.96R
PINE RIDGE     FAIR      64  55  72 E7        30.01R
SPEARFISH      FAIR      68  43  40 SE8       30.02R
WINNER         FAIR      68  59  73 SE8       29.99R
$$

SDZ004>011-016>023-039-040-190400-
NORTHEAST SOUTH DAKOTA

CITY           SKY/WX    TMP DP  RH WIND       PRES   REMARKS
ABERDEEN       FAIR      61  59  93 SE6       29.94R
WATERTOWN      FAIR      62  60  93 W5        29.96R
BROOKINGS      FAIR      61  59  93 NW7       29.96R
SISSETON         N/A     60  59  96 SW5       29.92R
$$

SDZ017-020-022-023-036>040-048>070-190400-
SOUTHEAST SOUTH DAKOTA

CITY           SKY/WX    TMP DP  RH WIND       PRES   REMARKS
SIOUX FALLS    FAIR      64  61  90 NW9       29.96R
HURON          FAIR      65  58  78 CALM      29.96R
CHAMBERLAIN    FAIR      64  60  88 E3        29.97S
MITCHELL       FAIR      64  60  87 W6        29.98R
YANKTON        FAIR      65  59  81 NW10      29.97R
$$

ABBREVIATIONS USED IN REMARKS
   TC - TEMPERATURE IN CELSIUS
  WCI - WIND CHILL INDEX
   HX - HEAT INDEX
  VSB - VISIBILITY




USA.gov is the U.S. government's official web portal to all federal, state and local government web resources and services.